Погода в Хаммамете

Тунис     36°22′54″N   10°32′24″E
темп.,
°C
ветер,
м/с
пор.,
м/с
влажн.,
%
обл.,
%
осадки,
мм/ч
давл.,
гПа
погр.,
м
7 августа, вс
вс701:00+25сз23720 0.0 101482
04:00+24сз34740 0.0 101376
07:00+26сз49660 0.0 1014521
10:00+32ссз78370 0.0 10141367
13:00+34с87300 0.0 10121985
16:00+33с88390 0.0 10121067
19:00+29с59540 0.0 1012420
22:00+27ссз47600 0.0 1013236
8 августа, пн
пн801:00+25сз23680 0.0 101373
04:00+24зсз22740 0.0 101331
07:00+26зсз24660 0.0 1014241
10:00+32сз44401 0.0 10141097
13:00+36с65330 0.0 10132602
16:00+33с88410 0.0 1013921
19:00+28с46600 0.0 1014437
22:00+26ссз24800 0.0 1016217
9 августа, вт
вт901:00+25ссз22710 0.0 101532
04:00+23зсз22670 0.0 101415
07:00+25сз23570 0.0 1015158
10:00+32ссз44320 0.0 10161232
13:00+35ссв55250 0.0 10152461
16:00+34ссв45320 0.0 10141740
19:00+29ссв34470 0.0 1014556
22:00+25ссв22680 0.0 101637
10 августа, ср
ср1001:00+24з22740 0.0 101523
04:00+23ссз22740 0.0 101523
07:00+25ссз24660 0.0 1015253
10:00+31с44400 0.0 10151291
13:00+33с653713 0.0 10152160
16:00+32с76420 0.0 10141209
19:00+27с57630 0.0 1014604
22:00+25ссз35750 0.0 1015292
11 августа, чт
чт1101:00+24з227937 0.0 101556
04:00+23сз23820 0.0 101449
07:00+25ссз34730 0.0 1015498
10:00+30с44440 0.0 10151335
13:00+33св33372 0.0 10152153
16:00+32всв44400 0.0 10141856
19:00+28в44560 0.0 1014509
22:00+25в23700 0.0 1015119